• In Deutschland
  • Länderverzeichnis
  • Für 7 Tage
  • Wassertemperatur
  • Satellitenkarten
  • Wetterkarte
  • Widgets
  • user-avatar
    Anmelden

    Stündliche Wetter Wlora

    Heute, 25 April, Dienstag

    Zeit Temperatur Niederschläge Wind Luftdruck Luftfeuchtigkeit
    00:00 +12°C° 0 mm 4 m/S 765 mmHg 85%
    01:00 +12°C° 0 mm 5 m/S 765 mmHg 85%
    02:00 +12°C° 0 mm 5 m/S 765 mmHg 86%
    03:00 +12°C° 0 mm 5 m/S 765 mmHg 87%
    04:00 +12°C° 0 mm 5 m/S 764 mmHg 87%
    05:00 +13°C° 0 mm 5 m/S 765 mmHg 82%
    06:00 +14°C° 0 mm 5 m/S 765 mmHg 77%
    07:00 +16°C° 0 mm 5 m/S 765 mmHg 71%
    08:00 +17°C° 0 mm 5 m/S 765 mmHg 65%
    09:00 +19°C° 0 mm 6 m/S 765 mmHg 59%
    10:00 +20°C° 0 mm 6 m/S 765 mmHg 53%
    11:00 +21°C° 0 mm 7 m/S 765 mmHg 51%
    12:00 +21°C° 0 mm 7 m/S 765 mmHg 50%
    13:00 +21°C° 0 mm 7 m/S 764 mmHg 49%
    14:00 +21°C° 0 mm 7 m/S 764 mmHg 51%
    15:00 +20°C° 0 mm 7 m/S 764 mmHg 53%
    16:00 +20°C° 0 mm 7 m/S 764 mmHg 54%
    17:00 +17°C° 0 mm 7 m/S 764 mmHg 63%
    18:00 +15°C° 0 mm 6 m/S 763 mmHg 72%
    19:00 +13°C° 0 mm 6 m/S 763 mmHg 80%
    20:00 +13°C° 0 mm 6 m/S 764 mmHg 81%
    21:00 +13°C° 0 mm 6 m/S 764 mmHg 81%
    22:00 +13°C° 0 mm 6 m/S 764 mmHg 82%
    23:00 +11°C° 0 mm 6 m/S 764 mmHg 82%

    Morgen, 26 April, Mittwoch

    Zeit Temperatur Niederschläge Wind Luftdruck Luftfeuchtigkeit
    00:00 +11°C° 0 mm 6 m/S 764 mmHg 82%
    01:00 +11°C° 0 mm 6 m/S 764 mmHg 82%
    02:00 +11°C° 0 mm 6 m/S 763 mmHg 80%
    03:00 +10°C° 0 mm 6 m/S 763 mmHg 79%
    04:00 +10°C° 0 mm 6 m/S 763 mmHg 78%
    05:00 +13°C° 0 mm 6 m/S 763 mmHg 71%
    06:00 +14°C° 0 mm 6 m/S 763 mmHg 64%
    07:00 +16°C° 0 mm 6 m/S 763 mmHg 57%
    08:00 +17°C° 0 mm 7 m/S 763 mmHg 51%
    09:00 +20°C° 0 mm 7 m/S 763 mmHg 45%
    10:00 +21°C° 0 mm 7 m/S 763 mmHg 39%
    11:00 +22°C° 0 mm 7 m/S 763 mmHg 38%
    12:00 +22°C° 0 mm 7 m/S 763 mmHg 38%
    13:00 +23°C° 0 mm 8 m/S 763 mmHg 37%
    14:00 +22°C° 0 mm 7 m/S 763 mmHg 39%
    15:00 +22°C° 0 mm 7 m/S 763 mmHg 41%
    16:00 +21°C° 0 mm 7 m/S 763 mmHg 44%
    17:00 +18°C° 0 mm 7 m/S 763 mmHg 52%
    18:00 +16°C° 0 mm 6 m/S 763 mmHg 61%
    19:00 +14°C° 0 mm 6 m/S 763 mmHg 69%
    20:00 +14°C° 0 mm 5 m/S 763 mmHg 68%
    21:00 +14°C° 0 mm 5 m/S 763 mmHg 67%
    22:00 +14°C° 0 mm 5 m/S 763 mmHg 66%
    23:00 +13°C° 0 mm 5 m/S 763 mmHg 66%

    übermorgen, 27 April, Donnerstag

    Zeit Temperatur Niederschläge Wind Luftdruck Luftfeuchtigkeit
    00:00 +13°C° 0 mm 5 m/S 763 mmHg 66%
    01:00 +13°C° 0 mm 5 m/S 763 mmHg 66%
    02:00 +13°C° 0 mm 5 m/S 762 mmHg 65%
    03:00 +13°C° 0 mm 5 m/S 762 mmHg 64%
    04:00 +13°C° 0 mm 5 m/S 762 mmHg 63%
    05:00 +14°C° 0 mm 5 m/S 762 mmHg 58%
    06:00 +16°C° 0 mm 5 m/S 762 mmHg 53%
    07:00 +19°C° 0 mm 5 m/S 762 mmHg 49%
    08:00 +20°C° 0 mm 5 m/S 762 mmHg 44%
    09:00 +22°C° 0 mm 6 m/S 762 mmHg 39%
    10:00 +23°C° 0 mm 6 m/S 763 mmHg 34%
    11:00 +24°C° 0 mm 6 m/S 762 mmHg 34%
    12:00 +24°C° 0 mm 6 m/S 762 mmHg 33%
    13:00 +26°C° 0 mm 6 m/S 762 mmHg 33%
    14:00 +24°C° 0 mm 6 m/S 762 mmHg 35%
    15:00 +24°C° 0 mm 6 m/S 761 mmHg 36%
    16:00 +23°C° 0 mm 6 m/S 761 mmHg 38%
    17:00 +21°C° 0 mm 6 m/S 761 mmHg 46%
    18:00 +19°C° 0 mm 6 m/S 761 mmHg 53%
    19:00 +16°C° 0 mm 5 m/S 761 mmHg 60%
    20:00 +15°C° 0 mm 6 m/S 762 mmHg 58%
    21:00 +15°C° 0 mm 6 m/S 762 mmHg 56%
    22:00 +15°C° 0 mm 6 m/S 762 mmHg 54%
    23:00 +15°C° 0 mm 6 m/S 762 mmHg 53%

    28 April, Freitag

    Zeit Temperatur Niederschläge Wind Luftdruck Luftfeuchtigkeit
    00:00 +15°C° 0 mm 6 m/S 761 mmHg 52%
    01:00 +15°C° 0 mm 6 m/S 761 mmHg 51%
    02:00 +15°C° 0 mm 7 m/S 761 mmHg 50%
    03:00 +15°C° 0 mm 7 m/S 761 mmHg 50%
    04:00 +15°C° 0 mm 7 m/S 761 mmHg 49%
    05:00 +16°C° 0 mm 7 m/S 761 mmHg 46%
    06:00 +18°C° 0 mm 7 m/S 761 mmHg 43%
    07:00 +20°C° 0 mm 7 m/S 761 mmHg 40%
    08:00 +22°C° 0 mm 7 m/S 761 mmHg 37%
    09:00 +23°C° 0 mm 8 m/S 761 mmHg 34%
    10:00 +26°C° 0 mm 8 m/S 761 mmHg 30%
    11:00 +26°C° 0 mm 8 m/S 761 mmHg 31%
    12:00 +26°C° 0 mm 8 m/S 760 mmHg 31%
    13:00 +27°C° 0 mm 8 m/S 760 mmHg 31%
    14:00 +26°C° 0 mm 8 m/S 760 mmHg 34%
    15:00 +24°C° 0 mm 8 m/S 760 mmHg 37%
    16:00 +23°C° 0 mm 8 m/S 759 mmHg 39%
    17:00 +22°C° 0 mm 8 m/S 759 mmHg 44%
    18:00 +20°C° 0 mm 8 m/S 759 mmHg 49%
    19:00 +18°C° 0 mm 8 m/S 759 mmHg 53%
    20:00 +18°C° 0 mm 8 m/S 760 mmHg 53%
    21:00 +17°C° 0 mm 8 m/S 760 mmHg 52%
    22:00 +17°C° 0 mm 8 m/S 760 mmHg 52%
    23:00 +17°C° 0 mm 8 m/S 760 mmHg 51%

    29 April, Samstag

    Zeit Temperatur Niederschläge Wind Luftdruck Luftfeuchtigkeit
    00:00 +17°C° 0 mm 7 m/S 759 mmHg 51%
    01:00 +16°C° 0 mm 7 m/S 759 mmHg 51%
    02:00 +16°C° 0,1 mm 7 m/S 759 mmHg 51%
    03:00 +16°C° 0,1 mm 7 m/S 759 mmHg 51%
    04:00 +16°C° 0,1 mm 7 m/S 758 mmHg 52%
    05:00 +17°C° 0 mm 6 m/S 759 mmHg 50%
    06:00 +19°C° 0 mm 6 m/S 759 mmHg 49%
    07:00 +20°C° 0 mm 6 m/S 759 mmHg 47%
    08:00 +22°C° 0,1 mm 5 m/S 759 mmHg 43%
    09:00 +23°C° 0,1 mm 5 m/S 759 mmHg 40%
    10:00 +25°C° 0,1 mm 5 m/S 759 mmHg 36%
    11:00 +25°C° 0,1 mm 5 m/S 759 mmHg 35%
    12:00 +26°C° 0,1 mm 4 m/S 758 mmHg 34%
    13:00 +27°C° 0,1 mm 4 m/S 758 mmHg 33%
    14:00 +25°C° 0 mm 4 m/S 758 mmHg 39%
    15:00 +23°C° 0 mm 4 m/S 758 mmHg 45%
    16:00 +22°C° 0 mm 4 m/S 758 mmHg 52%
    17:00 +21°C° 0,1 mm 4 m/S 758 mmHg 60%
    18:00 +19°C° 0,1 mm 5 m/S 758 mmHg 69%
    19:00 +17°C° 0,1 mm 5 m/S 758 mmHg 77%
    20:00 +16°C° 0,1 mm 5 m/S 759 mmHg 77%
    21:00 +16°C° 0,1 mm 5 m/S 759 mmHg 76%
    22:00 +16°C° 0,1 mm 5 m/S 759 mmHg 76%
    23:00 +16°C° 0 mm 5 m/S 759 mmHg 75%

    30 April, Sonntag

    Zeit Temperatur Niederschläge Wind Luftdruck Luftfeuchtigkeit
    00:00 +16°C° 0 mm 5 m/S 758 mmHg 74%
    01:00 +16°C° 0 mm 5 m/S 758 mmHg 73%
    02:00 +16°C° 0 mm 5 m/S 758 mmHg 73%
    03:00 +16°C° 0 mm 5 m/S 758 mmHg 73%
    04:00 +16°C° 0 mm 5 m/S 758 mmHg 73%
    05:00 +17°C° 0 mm 5 m/S 758 mmHg 69%
    06:00 +19°C° 0 mm 5 m/S 758 mmHg 65%
    07:00 +20°C° 0 mm 5 m/S 758 mmHg 61%
    08:00 +22°C° 0 mm 5 m/S 758 mmHg 54%
    09:00 +23°C° 0 mm 6 m/S 758 mmHg 48%
    10:00 +26°C° 0 mm 6 m/S 758 mmHg 41%
    11:00 +26°C° 0 mm 6 m/S 758 mmHg 43%
    12:00 +26°C° 0 mm 6 m/S 758 mmHg 44%
    13:00 +26°C° 0 mm 6 m/S 758 mmHg 45%
    14:00 +24°C° 0 mm 6 m/S 758 mmHg 49%
    15:00 +23°C° 0 mm 6 m/S 758 mmHg 54%
    16:00 +22°C° 0 mm 5 m/S 758 mmHg 58%
    17:00 +21°C° 0 mm 5 m/S 758 mmHg 64%
    18:00 +19°C° 0 mm 5 m/S 758 mmHg 70%
    19:00 +17°C° 0 mm 5 m/S 758 mmHg 77%
    20:00 +16°C° 0 mm 5 m/S 758 mmHg 79%
    21:00 +16°C° 0 mm 5 m/S 758 mmHg 81%
    22:00 +15°C° 0 mm 5 m/S 758 mmHg 83%
    23:00 +15°C° 0 mm 5 m/S 758 mmHg 85%
    Mehr zeigen